Regional Weather Roundup
Issued by NWS Goodland, KS

Home | Current Version | Previous Version | Text Only | Print | Product List | Glossary Off
Versions: 1 2 3 4 5 6 7 8 9 10 11 12 13 14 15 16 17 18 19 20 21 22 23 24 25 26 27 28 29 30 31 32 33 34 35 36 37 38 39 40 41 42 43 44 45 46 47 48 49 50

000
ASUS43 KGLD 180459
RWRGLD

GOODLAND FORECAST AREA HOURLY WEATHER ROUNDUP
NATIONAL WEATHER SERVICE GOODLAND KS
1100 PM MDT THU AUG 17 2017

...OFFICIAL OBSERVATIONS...

CITY           SKY/WX    TMP DP  RH WIND       PRES   REMARKS
GOODLAND KS    CLEAR     66  60  81 S14       30.05R
HILL CITY KS   CLOUDY    66  61  84 S14       30.03F
IMPERIAL NEB   CLEAR     62  54  74 S6        30.00R
MCCOOK NEB     CLOUDY    66  57  72 SW12      29.97R
AKRON CO       CLEAR     65  46  50 SW10      30.08S
BURLINGTON CO  CLEAR     62  53  72 S7        30.07S
LIMON CO       CLEAR     51  50  96 N5        30.17R
$$

...UNOFFICIAL OBSERVATIONS...

CITY           SKY/WX    TMP DP  RH WIND       PRES   REMARKS
LENORA KS        N/A     64  32  30 CALM        N/A
NORTON KS      CLEAR     73  50  43 SE13G20   29.94S
SHARON SPRINGS   N/A     64  61  89 S10         N/A
TRENTON NEB      N/A     63  32  31 SW8         N/A
KIT CARSON CO    N/A     64  51  63 CALM        N/A
YUMA CO        FAIR      59  50  72 W6        30.04S
$$



USA.gov is the U.S. government's official web portal to all federal, state and local government web resources and services.